Hourly Data Report for July 19, 2021

POND INLET A
NUNAVUT
Current Station Operator: NAVCAN

72°41'22.000" N
77°58'08.000" W
61.60 m
2403206
71095
YIO

Download Data

Hourly Data (July 2021)
Hourly Data Report for July 19, 2021
TIME
LST
Temp Definition
°C
Dew Point Definition
°C
Rel Hum Definition
%
Precip. Amount Definition
mm

Wind Dir Definition
10's deg

Wind Spd Definition
km/h
Visibility Definition
km
Stn Press Definition
kPa
Hmdx Definition


Wind Chill Definition


Weather Definition


00:00 5.2 -2.9 56 0.0 21 11 16.1 100.27     LegendNANA
01:00 5.0 -2.9 57 0.0 20 9 16.1 100.24     LegendNANA
02:00 2.9 0.6 85 0.0 24 9 16.1 100.22     LegendNANA
03:00 2.2 0.7 90 0.0 12 5 16.1 100.19     LegendNANA
04:00 3.5 1.0 84 0.0   0 16.1 100.18     LegendNANA
05:00 4.6 0.1 72 0.0 2 5 16.1 100.14     LegendNANA
06:00 5.1 1.2 76 0.0 LegendMM 4 16.1 100.13     LegendNANA
07:00 4.6 0.5 75 0.0 32 8 16.1 100.10     LegendNANA
08:00 5.5 -0.1 67 0.0 2 8 16.1 100.05     LegendNANA
09:00 8.4 -0.7 53 0.0 3 8 16.1 99.97     LegendNANA
10:00 8.9 -0.9 50 0.0 32 8 16.1 99.91     LegendNANA
11:00 9.2 -1.8 46 0.0 24 5 16.1 99.83     LegendNANA
12:00 8.8 -1.5 48 0.0 29 5 14.5 99.77     LegendNANA
13:00 9.3 -2.9 42 0.0 29 5 12.9 99.72     LegendNANA
14:00 9.3 -2.0 45 0.0 24 4 8.1 99.66     Haze
15:00 9.7 -1.2 46 0.0 35 4 11.3 99.61     LegendNANA
16:00 10.0 1.4 55 0.0 3 5 16.1 99.54     LegendNANA
17:00 10.0 3.9 66 0.2 9 4 16.1 99.48     Rain
18:00 10.2 4.1 66 0.0 2 8 16.1 99.39     LegendNANA
19:00 9.8 4.2 68 0.0 4 9 16.1 99.32     LegendNANA
20:00 9.7 4.2 68 0.0 6 11 16.1 99.24     LegendNANA
21:00 9.2 5.8 79 0.2 6 11 16.1 99.17     LegendNANA
22:00 6.9 5.2 89 1.2 4 13 16.1 99.14     Rain
23:00 7.9 6.8 93 0.8 7 15 11.3 99.05     Rain

Notes on Data Quality.

Legend

  • E = Estimated
  • M = Missing
  • NA = Not Available*
  • [empty] = Indicates an unobserved value
Date modified: